Home > Time Zones > World Clock > Weather > Spain > Jaén > Past weeks

Flag for Spain Weather past 2 weeks in Jaén, Spain

Now
79 °F

Clear.


Feels Like: 80 °F
Forecast: 58 / 94 °F
Wind: 2 mph from North

Location: Granada / Aeropuerto

Current Time: Aug 23, 2014 at 10:45:26 PM

Latest Report: Aug 23, 2014 at 10:00 PM


Visibility: 10 mi

Pressure: 30.09 "Hg

Humidity: 48%

Dew point: 57 °F

Location of JaénLocation

Historic Weather in Jaén — Graph

°F

Jaén temperature yesterday

Maximum temperature yesterday: 90 °F (at 2:30 PM)
Minimum temperature yesterday: 55 °F (at 7:30 AM)
Average temperature yesterday: 78 °F

Past Weeks' High & Low Weather Summary

 TemperatureHumidityPressure
High100 °F (Aug 9, 4:00 PM)88% (Aug 16, 6:00 AM)30.12 "Hg (Aug 16, 6:00 AM)
Low54 °F (Aug 20, 7:30 AM)11% (Aug 10, 4:00 PM)29.86 "Hg (Aug 9, 6:00 PM)
Average81 °F40%30.01 "Hg
* Reported Aug 8 10:00 PM — Aug 23 10:00 PM, Jaén, Weather by CustomWeather, © 2014

Note: Actual official high and low records may vary slightly from our data, if they occured in-between our weather recording intervals... More about our weather records

Advertising

Jaén weather history for previous 24 hours

 ConditionsComfort  
Time TempWeatherWind HumidityBarometerVisibility
10:00 PM
Aug 23
79 °FClear.2 mph48%30.09 "Hg10 mi
9:30 PM81 °FSunny.5 mph48%30.09 "Hg10 mi
9:00 PM82 °FPassing clouds.7 mph48%30.07 "HgN/A
8:30 PM84 °FPassing clouds.8 mph45%30.04 "HgN/A
8:00 PM88 °FPassing clouds.12 mph38%30.04 "HgN/A
7:30 PM88 °FPassing clouds.12 mph38%30.04 "HgN/A
7:00 PM90 °FPassing clouds.15 mph36%30.04 "HgN/A
6:30 PM93 °FPassing clouds.3 mph30%30.04 "HgN/A
6:00 PM93 °FPassing clouds.7 mph20%30.04 "HgN/A
5:30 PM93 °FPassing clouds.5 mph19%30.04 "HgN/A
5:00 PM93 °FPassing clouds.9 mph21%30.04 "HgN/A
4:30 PM93 °FPassing clouds.7 mph20%30.04 "HgN/A
4:00 PM93 °FPassing clouds.8 mph17%30.04 "HgN/A
3:30 PM93 °FPassing clouds.5 mph19%30.04 "HgN/A
3:00 PM91 °FPassing clouds.5 mph21%30.07 "HgN/A
2:30 PM90 °FPassing clouds.5 mph22%30.07 "HgN/A
2:00 PM88 °FPassing clouds.1 mph24%30.07 "HgN/A
1:30 PM86 °FPassing clouds.1 mph25%30.09 "HgN/A
1:00 PM84 °FSunny.1 mph33%30.09 "Hg10 mi
12:30 PM82 °FSunny.1 mph32%30.09 "Hg10 mi
12:00 PM79 °FSunny.1 mph37%30.09 "Hg10 mi
11:30 AM77 °FSunny.1 mph42%30.09 "Hg10 mi
11:00 AM75 °FSunny.1 mph41%30.09 "Hg10 mi
10:30 AM72 °FSunny.1 mph47%30.09 "Hg10 mi
10:00 AM70 °FSunny.No wind53%30.09 "Hg10 mi
9:30 AM66 °FSunny.No wind60%30.09 "Hg10 mi
9:00 AM63 °FSunny.No wind64%30.09 "Hg10 mi
8:30 AM61 °FClear.No wind63%30.07 "Hg10 mi
8:00 AM57 °FClear.No wind72%30.07 "Hg10 mi
7:30 AM57 °FClear.No wind72%30.07 "Hg10 mi
7:00 AM59 °FClear.No wind68%30.07 "Hg10 mi
6:30 AM59 °FClear.1 mph72%30.07 "Hg10 mi
6:00 AM59 °FClear.No wind72%30.07 "Hg10 mi
11:30 PM
Aug 22
72 °FClear.1 mph41%30.04 "Hg10 mi
11:00 PM73 °FClear.No wind38%30.04 "Hg10 mi
10:30 PM77 °FPassing clouds.7 mph32%30.04 "HgN/A
10:00 PM79 °FPassing clouds.3 mph30%30.01 "HgN/A
Weather by CustomWeather, © 2014

See weather overviewHow to use our weather pages